Home   Weather   Stans   Past weeks

Flag for Switzerland Past Weather in Stans, Nidwalden, Switzerland — Yesterday and Last 2 Weeks

Now
21 °F

Cold.


Feels Like: 21 °F
Forecast: 16 / 37 °F
Wind: 2 mph from Southwest

Location: Giswil

Current Time: Jan 22, 2017 at 1:45:34 pm

Latest Report: Jan 22, 2017 at 12:00 pm


Visibility: N/A

Pressure: 30.37 "Hg

Humidity: 100%

Dew Point: 21 °F

Location of StansLocation

Past Weather in Stans — Graph

°F

Stans Temperature Yesterday

Maximum temperature yesterday: 23 °F (at 3:00 pm)
Minimum temperature yesterday: 20 °F (at 7:00 am)
Average temperature yesterday: 21 °F

High & Low Weather Summary for the Past Weeks

 TemperatureHumidityPressure
High45 °F (Jan 13, 1:00 am)100% (Jan 8, 8:00 am)30.64 "Hg (Jan 8, 8:00 am)
Low18 °F (Jan 10, 3:00 am)49% (Jan 11, 5:00 pm)29.50 "Hg (Jan 13, 1:00 am)
Average27 °F88%30.27 "Hg
* Reported Jan 7 12:00 pm — Jan 22 12:00 pm, Stans, Weather by CustomWeather, © 2017

Note: Actual official high and low records may vary slightly from our data, if they occured in-between our weather recording intervals... More about our weather records

Advertising

Stans Weather History for the Previous 24 Hours

Scroll right to see more
 ConditionsComfort  
Time TempWeatherWind HumidityBarometerVisibility
12:00 pm
Sun, Jan 22
21 °FCold.2 mph100%30.37 "HgN/A
11:00 am20 °FCold.2 mph99%30.38 "HgN/A
10:00 am20 °FCold.3 mph99%30.40 "HgN/A
9:00 am20 °FCold.No wind99%30.38 "HgN/A
8:00 am20 °FCold.3 mph100%30.39 "HgN/A
7:00 am20 °FCold.5 mph99%30.38 "HgN/A
6:00 am20 °FCold.1 mph99%30.38 "HgN/A
5:00 am20 °FCold.3 mph99%30.40 "HgN/A
4:00 am21 °FCold.1 mph99%30.41 "HgN/A
3:00 am21 °FCold.3 mph100%30.42 "HgN/A
2:00 am21 °FCold.3 mph99%30.42 "HgN/A
1:00 am22 °FCold.No wind99%30.42 "HgN/A
12:00 am21 °FCold.2 mph99%30.44 "HgN/A
11:00 pm
Sat, Jan 21
22 °FCold.2 mph99%30.44 "HgN/A
10:00 pm22 °FCold.3 mph100%30.43 "HgN/A
9:00 pm21 °FCold.5 mph100%30.45 "HgN/A
8:00 pm21 °FCold.3 mph99%30.44 "HgN/A
7:00 pm22 °FCold.1 mph99%30.43 "HgN/A
6:00 pm22 °FCold.1 mph99%30.43 "HgN/A
5:00 pm22 °FCold.1 mph99%30.43 "HgN/A
4:00 pm23 °FCold.2 mph99%30.44 "HgN/A
3:00 pm23 °FCold.1 mph99%30.44 "HgN/A
2:00 pm22 °FCold.2 mph99%30.47 "HgN/A
1:00 pm22 °FCold.2 mph99%30.49 "HgN/A
Weather by CustomWeather, © 2017

See weather overviewHow to use our weather pages